TimePST,TemperatureF,Dew PointF,Humidity,Sea Level PressureIn,VisibilityMPH,Wind Direction,Wind SpeedMPH,Gust SpeedMPH,PrecipitationIn,Events,Conditions,WindDirDegrees,DateUTC
12:53 AM,51.1,46.9,86,29.75,7.0,South,13.8,26.5,0.07,Rain,Light Rain,180,2013-01-09 08:53:00
1:53 AM,51.1,46.0,83,29.75,6.0,South,15.0,26.5,0.08,Rain,Light Rain,180,2013-01-09 09:53:00
2:53 AM,46.9,42.1,83,29.75,5.0,WSW,6.9,-,0.21,Rain,Light Rain,240,2013-01-09 10:53:00
3:53 AM,46.0,41.0,83,29.71,10.0,WSW,8.1,-,0.09,Rain,Light Rain,240,2013-01-09 11:53:00
4:53 AM,45.0,39.9,82,29.69,5.0,SSW,5.8,-,0.11,Rain,Light Rain,210,2013-01-09 12:53:00
5:40 AM,44.6,41.0,87,29.68,7.0,ESE,8.1,-,0.09,Rain,Light Rain,120,2013-01-09 13:40:00
5:53 AM,44.1,39.9,85,29.68,8.0,ESE,8.1,-,0.11,Rain,Light Rain,120,2013-01-09 13:53:00
6:53 AM,43.0,39.0,86,29.71,7.0,South,5.8,-,0.12,Rain,Light Rain,180,2013-01-09 14:53:00
7:53 AM,42.1,39.0,89,29.73,7.0,South,10.4,-,0.10,Rain,Light Rain,170,2013-01-09 15:53:00
8:53 AM,39.0,36.0,89,29.76,5.0,SE,12.7,-,0.14,Rain,Rain,130,2013-01-09 16:53:00
9:53 AM,37.0,34.0,89,29.77,9.0,SE,9.2,-,0.09,Rain,Light Rain,130,2013-01-09 17:53:00
10:31 AM,37.4,33.8,87,29.77,10.0,SE,11.5,-,0.03,Rain,Light Rain,140,2013-01-09 18:31:00
10:53 AM,37.9,35.1,89,29.78,10.0,SE,11.5,-,0.03,,Overcast,130,2013-01-09 18:53:00
11:53 AM,39.9,36.0,86,29.77,10.0,SE,9.2,-,N/A,,Overcast,130,2013-01-09 19:53:00
12:53 PM,43.0,37.9,82,29.76,10.0,SE,10.4,-,N/A,,Overcast,130,2013-01-09 20:53:00
1:53 PM,45.0,39.0,80,29.79,10.0,South,9.2,-,N/A,,Overcast,180,2013-01-09 21:53:00
2:53 PM,44.1,37.9,79,29.81,10.0,SSE,8.1,-,N/A,,Mostly Cloudy,150,2013-01-09 22:53:00
3:53 PM,44.1,37.0,76,29.84,10.0,SSE,5.8,-,N/A,,Overcast,150,2013-01-09 23:53:00
4:53 PM,44.1,36.0,73,29.86,10.0,South,8.1,-,N/A,,Overcast,170,2013-01-10 00:53:00
5:53 PM,42.1,35.1,76,29.88,10.0,SSE,9.2,-,N/A,,Overcast,160,2013-01-10 01:53:00
6:53 PM,42.1,35.1,76,29.89,10.0,SSE,9.2,-,N/A,,Overcast,160,2013-01-10 02:53:00
7:53 PM,41.0,34.0,76,29.91,10.0,SSE,9.2,-,N/A,,Mostly Cloudy,150,2013-01-10 03:53:00
8:53 PM,39.9,34.0,79,29.93,10.0,SSE,8.1,-,N/A,,Mostly Cloudy,150,2013-01-10 04:53:00
9:53 PM,39.9,33.1,77,29.94,10.0,SE,8.1,-,N/A,,Mostly Cloudy,130,2013-01-10 05:53:00
10:53 PM,39.0,33.1,79,29.95,10.0,SE,6.9,-,N/A,,Overcast,140,2013-01-10 06:53:00
11:53 PM,39.0,33.1,79,29.95,10.0,SE,5.8,-,N/A,,Overcast,140,2013-01-10 07:53:00